EW4496 Weather Reports


time (UTC)temp
F
wind
direction
speed
knots
gust
knots
rain 1hr
in
rain 24hr
in
rain mn
in
humidity
%
barometer
mb
20260508184618 72 335 0.0 0.0 0.00 0.00 0.00 63 1016.6
20260508183107 70 276 0.0 0.9 0.00 0.00 0.00 67 1016.7
20260508181608 70 217 0.0 0.9 0.00 0.00 0.00 68 1016.8
20260508180008 68 252 0.0 0.9 0.00 0.00 0.00 71 1016.7
20260508174509 65 187 0.0 0.9 0.00 0.00 0.00 74 1016.9
20260508173022 64 346 0.0 0.0 0.00 0.00 0.00 77 1017.0
20260508171525 63 338 0.0 0.0 0.00 0.00 0.00 78 1017.1
20260508170043 61 278 0.0 0.9 0.00 0.00 0.00 82 1017.1
20260508164544 61 303 0.0 0.0 0.00 0.00 0.00 83 1017.1
20260508163057 59 195 0.0 0.9 0.00 0.00 0.00 87 1017.0
20260508161552 57 195 0.0 0.9 0.00 0.00 0.00 88 1017.0
20260508160042 56 286 0.0 1.7 0.00 0.00 0.00 88 1017.2
20260508154542 56 282 0.0 1.7 0.00 0.00 0.00 88 1017.2
20260508153107 56 226 0.0 1.7 0.00 0.00 0.00 88 1017.2
20260508151557 56 245 0.0 0.9 0.00 0.00 0.00 88 1017.1
20260508150059 56 306 0.0 1.7 0.00 0.00 0.00 88 1017.1
20260508144557 56 283 0.0 1.7 0.00 0.00 0.00 89 1016.8
20260508143116 55 226 0.0 0.9 0.00 0.00 0.00 90 1016.8
20260508141604 54 223 0.0 2.6 0.00 0.00 0.00 92 1016.7
20260508140115 52 265 0.0 0.0 0.00 0.00 0.00 94 1016.5
20260508134556 52 229 0.0 0.0 0.00 0.00 0.00 94 1016.3
20260508133102 51 240 0.0 0.0 0.00 0.00 0.00 94 1016.2
20260508131556 51 209 0.0 0.0 0.00 0.00 0.00 94 1016.3
20260508130107 51 288 0.0 0.0 0.00 0.00 0.00 94 1016.3
20260508124613 51 250 0.0 0.0 0.00 0.00 0.00 94 1016.1
20260508123110 51 276 0.0 0.0 0.00 0.00 0.00 94 1016.0
20260508121611 52 221 0.0 0.0 0.00 0.00 0.00 94 1015.8
20260508120115 52 282 0.0 0.0 0.00 0.00 0.00 94 1015.7
20260508114511 52 233 0.0 0.0 0.00 0.00 0.00 94 1015.7
20260508113038 52 230 0.0 0.0 0.00 0.00 0.00 94 1015.7
20260508111542 53 288 0.0 0.0 0.00 0.00 0.00 94 1015.7
20260508110041 53 240 0.0 0.0 0.00 0.00 0.00 94 1015.7
20260508104541 53 226 0.0 0.0 0.00 0.00 0.00 93 1015.6
20260508103046 53 231 0.0 0.0 0.00 0.00 0.00 93 1015.6
20260508101541 53 229 0.0 0.0 0.00 0.00 0.00 93 1015.6
20260508100028 53 231 0.0 0.0 0.00 0.00 0.00 93 1015.6
20260508094544 53 225 0.0 0.0 0.00 0.00 0.00 93 1015.5
20260508093041 54 279 0.0 0.0 0.00 0.00 0.00 92 1015.5
20260508091602 54 231 0.0 0.0 0.00 0.00 0.00 92 1015.5
20260508090044 54 250 0.0 0.0 0.00 0.00 0.00 92 1015.4
20260508084555 55 288 0.0 0.0 0.00 0.00 0.00 92 1015.4
20260508083055 55 279 0.0 0.0 0.00 0.00 0.00 91 1015.4
20260508081612 55 199 0.0 0.0 0.00 0.00 0.00 91 1015.4
20260508074602 56 231 0.0 1.7 0.00 0.00 0.00 91 1015.3
20260508071555 56 303 0.0 0.9 0.00 0.00 0.00 89 1015.1
20260508070055 57 282 0.0 1.7 0.00 0.00 0.00 88 1015.1
20260508064555 58 211 0.0 1.7 0.00 0.00 0.00 87 1015.1
20260508063058 59 215 0.0 0.0 0.00 0.00 0.00 86 1015.0
20260508061557 60 247 0.0 0.9 0.00 0.00 0.00 86 1015.0
20260508060111 61 201 0.0 0.0 0.00 0.00 0.00 84 1014.9
20260508054639 61 235 0.0 0.0 0.00 0.00 0.00 84 1015.0
20260508053056 62 243 0.0 0.0 0.00 0.00 0.00 83 1015.1
20260508051554 62 349 0.0 0.9 0.00 0.00 0.00 82 1015.0
20260508050054 63 321 0.0 0.0 0.00 0.00 0.00 81 1014.9
20260508044554 64 321 0.0 0.0 0.00 0.00 0.00 79 1014.7
20260508043059 64 323 0.0 0.0 0.00 0.00 0.00 78 1014.5
20260508041555 65 352 0.0 0.0 0.00 0.00 0.00 77 1014.4
20260508040055 67 318 0.0 0.0 0.00 0.00 0.00 76 1014.2
20260508034555 69 302 0.0 0.0 0.00 0.00 0.00 74 1014.1
20260508033054 70 321 0.0 2.6 0.00 0.00 0.00 71 1013.9
20260508031601 72 304 0.0 3.5 0.00 0.00 0.00 67 1013.7
20260508030126 74 271 0.0 0.9 0.00 0.00 0.00 65 1013.5
20260508024510 78 307 0.0 2.6 0.00 0.00 0.00 61 1013.5
20260508023010 81 321 0.0 2.6 0.00 0.00 0.00 57 1013.4
20260508021511 83 290 0.0 0.0 0.00 0.00 0.00 54 1013.2
20260508020010 85 304 0.0 0.0 0.00 0.00 0.00 49 1013.2
20260508014511 85 283 0.0 0.0 0.00 0.00 0.00 48 1013.3
20260508013012 85 249 0.0 1.7 0.00 0.00 0.00 48 1013.4
20260508011525 85 325 0.0 0.9 0.00 0.00 0.00 47 1013.5
20260508010040 85 312 0.0 0.9 0.00 0.00 0.00 46 1013.5
20260508004530 85 352 0.0 0.9 0.00 0.00 0.00 46 1013.5
20260508003024 86 294 0.0 1.7 0.00 0.00 0.00 46 1013.6
20260508001525 85 311 0.0 0.9 0.00 0.00 0.00 47 1013.7
20260508000058 85 355 0.0 0.9 0.00 0.00 0.00 46 1013.7
20260507234509 84 324 0.0 2.6 0.00 0.00 0.00 48 1013.7
20260507233009 84 317 0.0 0.9 0.00 0.00 0.00 48 1013.7
20260507231511 83 340 0.0 0.0 0.00 0.00 0.00 48 1014.0
20260507230009 84 278 0.0 0.9 0.00 0.00 0.00 48 1014.2
20260507224513 83 32 0.0 1.7 0.00 0.00 0.00 50 1014.5
20260507223009 83 345 0.0 0.9 0.00 0.00 0.00 49 1014.7
20260507221512 82 306 0.0 0.0 0.00 0.00 0.00 50 1015.0
20260507220008 82 337 0.0 0.0 0.00 0.00 0.00 50 1015.2
20260507214510 81 333 0.0 1.7 0.00 0.00 0.00 51 1015.4
20260507213009 81 352 0.0 1.7 0.00 0.00 0.00 50 1015.7
20260507211542 80 360 0.0 1.7 0.00 0.00 0.00 52 1015.8
20260507210039 79 188 0.0 0.0 0.00 0.00 0.00 53 1016.0
20260507204539 79 17 0.0 0.9 0.00 0.00 0.00 54 1016.2
20260507203039 78 346 0.0 0.0 0.00 0.00 0.00 54 1016.4
20260507201542 78 298 0.0 0.9 0.00 0.00 0.00 56 1016.5
20260507200039 77 289 0.0 2.6 0.00 0.00 0.00 57 1016.6
20260507194538 76 278 0.0 0.0 0.00 0.00 0.00 57 1016.9
20260507193039 75 212 0.0 2.6 0.00 0.00 0.00 60 1017.0
20260507191538 74 321 0.0 1.7 0.00 0.00 0.00 62 1017.2
20260507190038 73 355 0.0 4.3 0.00 0.00 0.00 63 1017.3